Location: Dreilärchen
(47.9312°N, 8.6113°E)
Time: 00:06:42
(UTC+00:00)

Cosmos 1544 Rocket - Pass Details

Date: 26 May 2022
Orbit: 603 x 631 km, 82.5° (Epoch: 02 July)

Event Time Altitude Azimuth Distance (km) Brightness Sun altitude
Rises 01:03:47 0° 351° (N) 2,921 8.0 -17.3°
Reaches altitude 10° 01:06:03 10° 354° (N) 2,005 7.1 -17.2°
Maximum altitude 01:10:30 76° 80° (E) 644 3.7 -16.9°
Enters shadow 01:13:18 22° 163° (SSE) 1,361 4.9 -16.6°
